Middletown, RI

2:45 PM EST on January 18, 2017 (GMT -0500)
Newport State

Weather History for KUUU - February, 2013

Change the Weather History Date:

Thursday, February 21, 2013

  Actual Average Record
Temperature  
Mean Temperature 28 °F -  
Max Temperature 33 °F 42 °F 57 °F (1981)
Min Temperature 24 °F 26 °F 1 °F (2015)
Degree Days  
Heating Degree Days 36    
Moisture  
Dew Point 13 °F    
Average Humidity 53    
Maximum Humidity 63    
Minimum Humidity 43    
Precipitation  
Precipitation 0.00 in - - ()
Sea Level Pressure  
Sea Level Pressure 29.91 in    
Wind  
Wind Speed 13 mph (NW)    
Max Wind Speed 20 mph    
Max Gust Speed 30 mph    
Visibility 10 miles    
Events      
Averages and records for this station are not official NWS values.
T = Trace of Precipitation, MM = Missing Value Source: NWS Daily Summary

Daily Weather History Graph

Daily Weather History Graph

Search for Another Location

Airport or City:

Trip Planner

Search our weather history database for the weather conditions in past years. The results will help you decide how hot, cold, wet, or windy it might be!

Date:

Astronomy

Feb. 21, 2013 Rise Set
Actual Time 6:31 AM EST 5:26 PM EST
Civil Twilight 6:03 AM EST 5:54 PM EST
Nautical Twilight 5:31 AM EST 6:26 PM EST
Astronomical Twilight 4:59 AM EST 6:58 PM EST
Moon 1:36 PM EST (2/21) 3:36 AM EST (2/21)
Length of Visible Light 11h 51m
Length of Day
10h 54m
Waxing Gibbous, 83% of the Moon is Illuminated
Feb 21
Waxing Gibbous
Feb 25
Full
Mar 4
Last Quarter
Mar 11
New
Mar 19
First Quarter

Hourly Weather History & Observations

Time (EST) Temp. Windchill Dew Point Humidity Pressure Visibility Wind Dir Wind Speed Gust Speed Precip Events Conditions
12:53 AM 26.1 °F 16.8 °F 12.0 °F 55% 29.84 in 10.0 mi West 9.2 mph 18.4 mph N/A   Partly Cloudy
1:53 AM 26.1 °F 16.8 °F 12.9 °F 58% 29.83 in 10.0 mi West 9.2 mph 21.9 mph N/A   Clear
2:53 AM 25.0 °F 14.8 °F 12.0 °F 58% 29.84 in 10.0 mi West 10.4 mph 19.6 mph N/A   Clear
3:53 AM 24.1 °F 16.0 °F 12.0 °F 60% 29.84 in 10.0 mi Variable 6.9 mph - N/A   Clear
5:53 AM 24.1 °F 17.0 °F 12.0 °F 60% 29.86 in 10.0 mi Variable 5.8 mph - N/A   Overcast
7:53 AM 25.0 °F 13.1 °F 10.9 °F 55% 29.86 in 10.0 mi West 13.8 mph 26.5 mph N/A   Overcast
8:53 AM 25.0 °F 11.3 °F 10.0 °F 53% 29.85 in 10.0 mi WNW 18.4 mph 25.3 mph N/A   Overcast
9:53 AM 27.0 °F 13.9 °F 10.9 °F 51% 29.84 in 10.0 mi West 18.4 mph 28.8 mph N/A   Partly Cloudy
10:53 AM 28.9 °F 17.7 °F 12.0 °F 49% 29.83 in 10.0 mi WNW 15.0 mph 25.3 mph N/A   Mostly Cloudy
11:53 AM 30.9 °F 19.1 °F 12.9 °F 47% 29.83 in 10.0 mi WNW 18.4 mph 28.8 mph N/A   Partly Cloudy
12:53 PM 30.9 °F 20.2 °F 12.0 °F 46% 29.82 in 10.0 mi WNW 15.0 mph 26.5 mph N/A   Clear
1:53 PM 32.0 °F 20.8 °F 12.9 °F 45% 29.81 in 10.0 mi NW 17.3 mph 26.5 mph N/A   Clear
2:53 PM 33.1 °F 22.2 °F 12.9 °F 43% 29.83 in 10.0 mi WNW 17.3 mph 26.5 mph N/A   Clear
3:53 PM 32.0 °F 20.5 °F 12.9 °F 45% 29.85 in 10.0 mi NW 18.4 mph 28.8 mph N/A   Clear
4:53 PM 30.9 °F 19.1 °F 12.9 °F 47% 29.88 in 10.0 mi NW 18.4 mph 29.9 mph N/A   Clear
5:53 PM 30.0 °F 19.5 °F 14.0 °F 51% 29.94 in 10.0 mi NW 13.8 mph 26.5 mph N/A   Clear
6:53 PM 28.9 °F 17.3 °F 12.0 °F 49% 29.99 in 10.0 mi NNW 16.1 mph 27.6 mph N/A   Clear
7:53 PM 28.0 °F 14.9 °F 12.0 °F 51% 30.02 in 10.0 mi NNW 19.6 mph 29.9 mph N/A   Clear
8:53 PM 27.0 °F 14.3 °F 12.9 °F 56% 30.07 in 10.0 mi NNW 17.3 mph 21.9 mph N/A   Clear
9:53 PM 27.0 °F 16.1 °F 14.0 °F 58% 30.11 in 10.0 mi NW 12.7 mph 23.0 mph N/A   Clear
10:53 PM 28.0 °F 17.0 °F 15.1 °F 58% 30.13 in 10.0 mi NW 13.8 mph - N/A   Clear
11:53 PM 28.0 °F 17.0 °F 17.1 °F 63% 30.18 in 10.0 mi NW 13.8 mph 20.7 mph N/A   Mostly Cloudy